This is the latest recevied weather packets stored in our database for station/object WA5KWK. If no packets are shown the sender has not sent any weather packets the latest 10 day(s).
| Time | Temp. | Humidity | Pressure | Rain* | Wind** | Luminosity | Snow |
|---|---|---|---|---|---|---|---|
| 1777983905 | 7.22° C | 95% | 1012.6 hPa | 0.51 mm | - | 0 W/m² | - |
| 1777981206 | 7.22° C | 95% | 1012.3 hPa | 1.27 mm | - | 0 W/m² | - |
| 1777980006 | 7.22° C | 95% | 1012.3 hPa | 1.78 mm | - | 0 W/m² | - |
| 1777979717 | 7.22° C | 95% | 1012.5 hPa | 1.78 mm | - | 0 W/m² | - |
| 1777976706 | 7.22° C | 95% | 1012.7 hPa | 0.25 mm | - | 0 W/m² | - |
| 1777976106 | 7.22° C | 95% | 1012.8 hPa | 0 mm | - | 0 W/m² | - |
| 1777974006 | 7.22° C | 95% | 1012.9 hPa | 0 mm | - | 0 W/m² | - |
| 1777970105 | 7.78° C | 95% | 1013.5 hPa | 0.25 mm | - | 0 W/m² | - |
| 1777967706 | 7.22° C | 94% | 1013.4 hPa | 0.76 mm | - | 0 W/m² | - |
| 1777966205 | 7.22° C | 94% | 1013.4 hPa | 2.29 mm | - | 0 W/m² | - |
| 1777965305 | 7.22° C | 94% | 1013.2 hPa | 2.29 mm | - | 0 W/m² | - |
| 1777965007 | 7.22° C | 94% | 1013.3 hPa | 2.54 mm | - | 0 W/m² | - |
| 1777963806 | 7.22° C | 94% | 1013.3 hPa | 2.03 mm | - | 0 W/m² | - |
| 1777962605 | 7.78° C | 94% | 1013.7 hPa | 0.76 mm | - | 0 W/m² | - |
| 1777961705 | 7.78° C | 93% | 1013.6 hPa | 0.51 mm | - | 0 W/m² | - |
| 1777961105 | 7.78° C | 93% | 1013.3 hPa | 0.25 mm | - | 0 W/m² | - |
| 1777958705 | 7.78° C | 93% | 1013.5 hPa | 0 mm | - | 0 W/m² | - |
| 1777958405 | 7.78° C | 93% | 1013.5 hPa | 0.25 mm | - | 0 W/m² | - |
| 1777954205 | 8.33° C | 93% | 1013.5 hPa | 0 mm | - | 0 W/m² | - |
| 1777953605 | 8.33° C | 93% | 1013.4 hPa | 0 mm | - | 0 W/m² | - |
| 1777952405 | 8.33° C | 93% | 1013.5 hPa | 0 mm | - | 0 W/m² | - |
| 1777949406 | 8.89° C | 92% | 1013 hPa | 0 mm | - | 0 W/m² | - |
| 1777943705 | 8.89° C | 92% | 1013.3 hPa | 0 mm | - | 65 W/m² | - |
| 1777938905 | 9.44° C | 92% | 1013.8 hPa | 0 mm | - | 113 W/m² | - |
| 1777938604 | 9.44° C | 93% | 1013.8 hPa | 0 mm | - | 134 W/m² | - |
* Rain latest hour (hover to see other rain measurements)
** Current wind speed in m/s (hover to see current wind gust speed)